Weather Roundup
Issued by NWS Chicago, IL

Home | Current Version | Previous Version | Text Only | Print | Product List | Glossary On
Versions: 1 2 3 4 5 6 7 8 9 10 11 12 13 14 15 16 17 18 19 20 21 22 23 24 25 26 27 28 29 30 31 32 33 34 35 36 37 38 39 40 41 42 43 44 45 46 47 48 49 50
000
NZUS59 KLOT 300612
HRRLOT

CHICAGO AREA WEATHER ROUNDUP
NATIONAL WEATHER SERVICE CHICAGO/ROMEOVILLE IL
100 AM CDT FRI SEP 30 2016

NOTE: "FAIR" INDICATES FEW OR NO CLOUDS BELOW 12,000 FEET WITH NO
SIGNIFICANT WEATHER AND/OR OBSTRUCTIONS TO VISIBILITY.

* THESE STATIONS ARE NOT UNDER NWS QUALITY CONTROL. THEY ALSO MAY NOT
  REPORT WEATHER SUCH AS PRECIPITATION OR FOG.

ILZ005-006-012>014-019>023-300700-
NORTHEAST ILLINOIS

CITY           SKY/WX    TMP DP  RH WIND       PRES   REMARKS
OHARE          LGT RAIN  60  58  92 NE15      30.17F
6HR MIN TEMP:  60; 6HR MAX TEMP:  63; 6HR PCP:  0.05;

MIDWAY         DRIZZLE   63  56  78 N14       30.15F
6HR MIN TEMP:  62; 6HR MAX TEMP:  65; 6HR PCP:  0.13;

AURORA         CLOUDY    62  58  86 NE10      30.18F
6HR MIN TEMP:  60; 6HR MAX TEMP:  63; 6HR PCP: TRACE;

LANSING*       LGT RAIN  60  60  99 NE8       30.14F
JOLIET*        CLOUDY    62  60  93 NE9       30.16F
WAUKEGAN       CLOUDY    60  58  92 N7        30.20F
6HR MIN TEMP:  60; 6HR MAX TEMP:  63; 6HR PCP:  0.04;

DUPAGE AIRPORT CLOUDY    61  56  83 NE15G22   30.17F
6HR MIN TEMP:  61; 6HR MAX TEMP:  62; 6HR PCP: TRACE;

WHEELING       LGT RAIN  60  57  89 N10G20    30.19F
6HR MIN TEMP:  60; 6HR MAX TEMP:  63; 6HR PCP:  0.05;

KANKAKEE*      CLOUDY    60  58  94 N7        30.14F
MORRIS*        CLOUDY    60  58  92 NE3       30.16F
LEWIS AIRPORT* CLOUDY    60  60 100 NE13      30.15F
NORTHERLY ISL    N/A     61  57  87 MISG        N/A
$$

WIZ051-052-058>065-066-070>072-300700-
SOUTHEAST WISCONSIN

CITY           SKY/WX    TMP DP  RH WIND       PRES   REMARKS
MILWAUKEE      CLOUDY    61  55  81 NE12      30.25F
6HR MIN TEMP:  61; 6HR MAX TEMP:  63; 6HR PCP: TRACE;

KENOSHA*       CLOUDY    60  57  89 NE10G21   30.22F
RACINE*        LGT RAIN  61  56  83 NE13      30.24F
BURLINGTON     CLOUDY    59  53  82 NE8       30.23F
WAUKESHA       CLOUDY    57  52  82 NE10      30.27S
WEST BEND      CLOUDY    66  63  88 NE9       30.27F
$$

INZ001>003-010>013-019-020-300700-
NORTHWEST INDIANA

CITY           SKY/WX    TMP DP  RH WIND       PRES   REMARKS
GARY*          RAIN      62  60  91 NE16      30.15F
6HR MIN TEMP:  62; 6HR MAX TEMP:  64; 6HR PCP:  0.02;

MICHIGAN CITY* NOT AVBL
RENSSELAER*    NOT AVBL
VALPARAISO     LGT RAIN  58  56  93 NE12      30.14F
$$

LMZ740>746-300700-
SOUTHERN LAKE MICHIGAN

STATION/POSITION TIME  SKY/WX   TEMP WIND        PRES    VSBY
                                AIR  DIR/SP/G
                 (UTC)          (F)  (DEG/KT/KT) (MB)    (MI)
HARRISON CRIB    0540            64   40/ 22/ 24   N/A
BURNHAM HARBOR   0600            61   30/ 15/ 18   N/A
CALUMET HARBOR   0548            62   30/ 13/ 20 1020.5F
BURNS HARBOR     0540            61   40/ 23/ 27 1021.0F
MICHIGAN CITY    0540            60   20/ 23/ 25   N/A
$$

ABBREVIATIONS USED IN REMARKS
   TC - TEMPERATURE IN CELSIUS
  WCI - WIND CHILL INDEX
   HX - HEAT INDEX
  VSB - VISIBILITY
$$



USA.gov is the U.S. government's official web portal to all federal, state and local government web resources and services.